Location: Launay
(47.2429°N, 1.5727°E)
Time: 07:27:56
(UTC+00:00)

CZ-4C R/B - Pass Details

Date: 19 May 2025
Orbit: 425 x 537 km, 98.0° (Epoch: 18 June)

Event Time Altitude Azimuth Distance (km) Brightness Sun altitude
Rises 22:47:59 0° 8° (N) 2,608 7.9 -21.3°
Reaches altitude 10° 22:50:10 10° 3° (N) 1,699 6.8 -21.4°
Maximum altitude 22:53:40 47° 289° (WNW) 649 3.8 -21.6°
Enters shadow 22:54:12 43° 260° (W) 688 3.8 -21.6°
